User: anonymous   Login
Location: Unspecified
(0.0000°N, 0.0000°E)
Time: 18:55:55
(UTC+00:00)
Language:

LilacSat-2 - Orbit

View from above orbital plane
View from above orbital plane
View from above satellite
View from above satellite

Ground track
Ground track

The orbit data is extracted from the following two-line orbital elements,

1 40908U 15049K   19341.45752031  .00000408  00000-0  26104-4 0  9994
2 40908  97.4850 339.0567 0015214 334.5019 154.0458 15.13909113232790
Epoch (UTC): 07 December 2019 10:58:49
Eccentricity: 0.0015214
inclination: 97.4850°
perigee height: 514 km
apogee height: 535 km
right ascension of ascending node: 339.0567°
argument of perigee: 334.5019°
revolutions per day: 15.13909113
mean anomaly at epoch: 154.0458°
orbit number at epoch: 23279

The dashed part of the orbit path shows where the satellite is in the earth's shadow,  

DLR